Location: Carnoy
(49.9849°N, 2.7558°E)
Time: 07:39:16
(UTC+00:00)

H-2A R/B - Visible Passes

Search period start: 06 June 2020 00:00
Search period end: 16 June 2020 00:00
Orbit: 734 x 836 km, 98.2° (Epoch: 05 June)

Date Brightness Start Highest point End Pass type
(mag) Time Alt. Az. Time Alt. Az. Time Alt. Az.
08 Jun 4.6 20:33:41 10° SW 20:37:11 18° W 20:40:45 10° NW visible
11 Jun 4.7 20:40:43 10° WSW 20:43:53 16° W 20:47:05 10° NW visible
14 Jun 4.8 20:47:52 10° WSW 20:50:35 14° W 20:53:20 10° NW visible
